GFSSGP_500_temp_159.txt.gz
Temp
-7 -7 -6 -5 -5 -4 -4 -5 -7 -7 -7 -7 -7 -6 -6 -6 -5 -4 -4 -4 -4 -4 -4 -4 -4 -3 -3 -3 -3 -3 -4 -4 -4 -4 -4 -4 -4 -5 -5 -5 -5 -5 -5 -5 -5 -5 -5 -5 -5
-7 -7 -7 -6 -5 -4 -4 -5 -7 -8 -8 -7 -7 -7 -6 -6 -6 -6 -6 -5 -5 -4 -4 -4 -4 -4 -4 -3 -3 -3 -4 -4 -4 -4 -4 -4 -4 -5 -5 -5 -5 -5 -5 -5 -5 -5 -5 -5 -6
-7 -7 -7 -6 -5 -3 -5 -6 -7 -8 -8 -7 -7 -7 -5 -4 -5 -7 -7 -6 -5 -5 -4 -4 -4 -4 -4 -4 -4 -4 -4 -5 -5 -5 -5 -5 -5 -5 -5 -5 -5 -5 -6 -5 -5 -5 -5 -6 -6
-7 -7 -7 -6 -4 -4 -5 -7 -7 -7 -8 -8 -8 -7 -6 -4 -5 -7 -7 -6 -6 -5 -5 -4 -4 -4 -4 -4 -4 -4 -5 -5 -5 -5 -5 -5 -5 -5 -6 -6 -6 -6 -6 -5 -5 -6 -6 -6 -6
-7 -7 -6 -5 -4 -4 -6 -7 -8 -8 -8 -8 -8 -6 -7 -6 -6 -7 -6 -6 -6 -5 -5 -4 -4 -4 -4 -4 -4 -4 -5 -5 -5 -5 -5 -6 -6 -6 -6 -6 -6 -6 -6 -6 -6 -6 -6 -6 -6
-7 -6 -6 -5 -5 -5 -6 -8 -8 -9 -8 -8 -7 -6 -6 -6 -7 -6 -6 -6 -5 -5 -5 -4 -4 -4 -4 -5 -5 -5 -5 -5 -5 -6 -6 -6 -6 -6 -6 -6 -6 -6 -6 -6 -6 -6 -6 -6 -6
-7 -6 -6 -5 -5 -5 -7 -8 -8 -9 -9 -8 -7 -7 -7 -7 -7 -6 -6 -6 -6 -5 -5 -5 -5 -5 -5 -5 -5 -5 -5 -5 -5 -6 -6 -6 -6 -6 -6 -6 -6 -6 -6 -6 -6 -6 -6 -6 -7
-7 -7 -6 -6 -5 -5 -6 -8 -9 -10 -9 -9 -7 -6 -7 -7 -5 -6 -6 -6 -6 -5 -5 -5 -5 -5 -5 -5 -5 -5 -5 -5 -5 -6 -6 -6 -6 -6 -6 -6 -6 -6 -6 -6 -7 -7 -7 -7 -7
-8 -7 -6 -6 -6 -6 -7 -8 -8 -9 -9 -10 -8 -6 -7 -7 -5 -5 -5 -6 -6 -5 -5 -5 -5 -5 -5 -5 -5 -5 -5 -5 -6 -6 -6 -6 -6 -6 -6 -6 -6 -7 -7 -7 -8 -8 -7 -7 -7
-8 -7 -6 -6 -6 -7 -8 -8 -9 -9 -10 -9 -9 -7 -5 -6 -7 -6 -7 -7 -6 -6 -6 -6 -6 -6 -6 -6 -6 -6 -6 -6 -6 -6 -6 -6 -7 -7 -7 -7 -7 -7 -8 -8 -8 -8 -8 -7 -8
-8 -7 -7 -7 -6 -7 -8 -8 -9 -9 -9 -9 -7 -7 -7 -7 -7 -6 -6 -7 -7 -6 -6 -6 -6 -6 -6 -6 -6 -6 -6 -7 -6 -6 -7 -7 -7 -7 -8 -8 -8 -8 -8 -8 -8 -8 -8 -8 -8
-9 -8 -8 -8 -7 -7 -8 -9 -8 -9 -9 -9 -8 -8 -8 -8 -6 -6 -7 -7 -7 -6 -6 -6 -6 -6 -6 -7 -7 -7 -7 -7 -7 -7 -7 -7 -8 -8 -8 -8 -8 -8 -8 -9 -8 -8 -8 -8 -8
-10 -9 -9 -8 -8 -8 -8 -9 -9 -8 -9 -9 -9 -7 -7 -7 -7 -7 -6 -6 -7 -7 -7 -6 -6 -6 -7 -7 -7 -7 -7 -7 -8 -8 -8 -8 -8 -9 -9 -9 -8 -8 -9 -8 -8 -8 -8 -8 -8
-10 -9 -9 -9 -9 -9 -8 -9 -9 -8 -9 -9 -9 -8 -7 -6 -7 -7 -6 -7 -7 -7 -7 -7 -7 -7 -7 -7 -7 -7 -8 -7 -8 -8 -8 -8 -9 -9 -9 -8 -8 -8 -8 -8 -8 -8 -8 -8 -8
-10 -10 -9 -9 -9 -9 -9 -9 -7 -9 -9 -9 -9 -9 -7 -7 -7 -7 -8 -7 -7 -7 -7 -7 -8 -8 -7 -8 -8 -8 -8 -8 -8 -8 -9 -9 -9 -9 -8 -8 -8 -8 -8 -8 -8 -8 -8 -9 -9
-11 -10 -10 -9 -9 -10 -10 -8 -7 -10 -9 -8 -8 -9 -8 -7 -7 -7 -8 -8 -8 -8 -7 -7 -7 -7 -7 -8 -8 -8 -8 -9 -9 -9 -10 -9 -9 -9 -8 -8 -8 -8 -8 -8 -9 -9 -9 -8 -8
-12 -11 -10 -10 -10 -10 -9 -8 -9 -10 -9 -9 -8 -8 -9 -8 -7 -7 -7 -8 -8 -8 -8 -7 -8 -8 -7 -8 -8 -9 -9 -10 -10 -10 -10 -9 -8 -8 -8 -8 -8 -9 -8 -9 -9 -8 -9 -9 -9
-13 -11 -11 -10 -10 -11 -9 -9 -11 -10 -9 -9 -8 -8 -9 -8 -7 -7 -7 -7 -8 -8 -8 -8 -9 -8 -8 -8 -7 -9 -10 -10 -10 -9 -9 -8 -8 -9 -9 -9 -8 -9 -9 -9 -9 -9 -9 -9 -9
-15 -14 -12 -11 -12 -12 -10 -10 -12 -10 -10 -10 -9 -9 -8 -8 -8 -7 -7 -7 -8 -8 -8 -8 -9 -9 -8 -8 -9 -10 -11 -10 -9 -9 -9 -9 -9 -9 -9 -9 -9 -9 -9 -9 -9 -9 -9 -9 -9
-16 -15 -14 -12 -13 -11 -10 -10 -12 -11 -10 -10 -10 -9 -9 -8 -8 -8 -8 -7 -8 -8 -8 -8 -9 -8 -9 -8 -8 -8 -7 -8 -9 -9 -10 -9 -9 -9 -9 -9 -10 -10 -9 -9 -10 -10 -10 -9 -9
-16 -16 -14 -12 -14 -12 -11 -11 -13 -11 -10 -11 -10 -9 -9 -8 -8 -8 -7 -8 -9 -8 -8 -8 -9 -8 -7 -8 -8 -7 -7 -8 -8 -9 -10 -9 -9 -9 -9 -9 -9 -9 -9 -10 -10 -10 -10 -9 -10
-17 -16 -15 -15 -15 -13 -12 -12 -13 -12 -11 -10 -10 -9 -9 -8 -8 -7 -8 -8 -9 -8 -9 -7 -8 -8 -7 -5 -5 -8 -8 -6 -6 -8 -9 -9 -10 -9 -10 -10 -10 -9 -10 -10 -10 -10 -10 -10 -10
-18 -17 -17 -16 -15 -14 -13 -13 -13 -12 -11 -10 -9 -9 -8 -8 -8 -8 -8 -8 -7 -9 -8 -7 -8 -8 -8 -7 -7 -7 -6 -9 -10 -9 -10 -9 -10 -10 -10 -10 -10 -10 -10 -10 -10 -10 -10 -10 -10
-19 -18 -18 -17 -16 -15 -13 -13 -13 -12 -10 -9 -8 -8 -8 -8 -8 -8 -8 -8 -8 -8 -8 -8 -8 -8 -8 -9 -8 -8 -9 -9 -9 -10 -10 -10 -10 -10 -10 -10 -10 -10 -10 -10 -9 -10 -10 -10 -10
-19 -19 -19 -17 -17 -14 -14 -13 -12 -10 -10 -10 -8 -7 -7 -8 -8 -8 -8 -8 -8 -8 -9 -8 -8 -9 -9 -9 -9 -9 -9 -10 -9 -9 -9 -9 -9 -9 -9 -9 -9 -9 -9 -9 -9 -9 -9 -10 -10
-19 -20 -18 -17 -17 -15 -14 -13 -11 -11 -10 -11 -10 -9 -9 -9 -9 -9 -8 -8 -8 -8 -9 -9 -8 -9 -9 -9 -9 -9 -9 -9 -9 -9 -9 -9 -9 -9 -9 -9 -9 -9 -9 -9 -10 -10 -10 -11 -11
-19 -19 -17 -17 -14 -15 -14 -11 -11 -11 -12 -11 -10 -9 -9 -9 -9 -9 -8 -8 -9 -8 -9 -9 -9 -10 -10 -10 -10 -10 -9 -9 -9 -9 -9 -9 -9 -9 -9 -9 -9 -9 -10 -11 -11 -12 -11 -11 -11
-19 -18 -16 -16 -16 -17 -13 -12 -12 -12 -12 -11 -10 -10 -9 -9 -9 -9 -9 -9 -8 -8 -9 -9 -10 -10 -10 -10 -10 -9 -9 -9 -9 -9 -9 -9 -9 -9 -9 -9 -10 -11 -11 -12 -12 -12 -12 -12 -12
-18 -17 -16 -16 -16 -15 -13 -12 -10 -11 -10 -10 -9 -9 -9 -9 -9 -9 -9 -8 -9 -8 -9 -9 -10 -10 -10 -9 -9 -9 -9 -9 -9 -9 -9 -9 -9 -9 -10 -10 -11 -11 -11 -11 -12 -12 -12 -12 -13
-18 -17 -16 -16 -16 -15 -12 -11 -11 -11 -11 -11 -9 -9 -9 -9 -9 -9 -9 -9 -9 -8 -9 -10 -10 -10 -9 -9 -9 -9 -9 -9 -9 -9 -9 -9 -10 -10 -10 -11 -11 -11 -11 -11 -12 -12 -12 -13 -13

GFSSGP_500_temp_162.txt.gz
Temp
-7 -7 -6 -5 -5 -5 -5 -6 -7 -8 -8 -6 -6 -6 -5 -6 -5 -4 -4 -4 -4 -3 -3 -4 -4 -4 -4 -4 -4 -4 -4 -4 -5 -5 -5 -6 -6 -6 -6 -6 -6 -6 -6 -6 -6 -6 -6 -5 -5
-7 -7 -7 -6 -5 -4 -5 -6 -6 -7 -8 -7 -7 -6 -5 -5 -5 -4 -4 -4 -4 -4 -4 -4 -4 -4 -4 -4 -4 -4 -4 -5 -5 -5 -6 -6 -6 -6 -6 -6 -6 -6 -6 -6 -6 -6 -6 -6 -6
-7 -7 -7 -6 -5 -4 -5 -6 -7 -7 -7 -7 -7 -6 -6 -5 -4 -4 -4 -4 -4 -4 -4 -4 -4 -4 -4 -4 -4 -4 -4 -5 -5 -6 -6 -6 -6 -6 -6 -6 -6 -6 -6 -6 -6 -6 -6 -6 -6
-7 -7 -7 -5 -5 -5 -5 -7 -7 -8 -8 -7 -7 -7 -7 -6 -5 -4 -4 -4 -4 -4 -5 -4 -4 -4 -4 -4 -4 -4 -5 -5 -6 -6 -6 -6 -6 -7 -7 -7 -7 -6 -6 -6 -6 -6 -6 -6 -6
-7 -7 -6 -5 -5 -5 -6 -7 -8 -8 -8 -8 -7 -7 -7 -6 -5 -4 -5 -6 -4 -4 -4 -4 -4 -4 -4 -4 -4 -5 -5 -5 -5 -6 -6 -6 -7 -7 -7 -6 -6 -6 -6 -6 -6 -6 -6 -7 -7
-7 -7 -6 -5 -6 -5 -7 -7 -8 -8 -8 -8 -8 -7 -7 -6 -5 -5 -5 -5 -4 -4 -4 -5 -5 -5 -5 -5 -5 -5 -5 -5 -6 -6 -6 -6 -7 -7 -7 -7 -7 -6 -6 -7 -6 -7 -7 -7 -7
-7 -7 -6 -6 -6 -6 -7 -8 -8 -9 -8 -8 -8 -7 -6 -6 -5 -6 -4 -4 -3 -4 -5 -4 -5 -5 -5 -5 -5 -5 -5 -5 -5 -6 -6 -6 -7 -7 -7 -7 -7 -7 -7 -7 -7 -7 -8 -7 -7
-8 -7 -6 -6 -6 -7 -7 -7 -8 -9 -9 -9 -8 -8 -6 -7 -6 -5 -5 -4 -3 -4 -5 -4 -5 -5 -5 -5 -5 -5 -5 -5 -6 -6 -6 -7 -6 -7 -7 -7 -7 -7 -7 -7 -7 -7 -7 -7 -7
-8 -7 -6 -7 -7 -7 -7 -7 -8 -8 -9 -9 -8 -8 -7 -6 -7 -6 -7 -4 -5 -5 -5 -5 -5 -5 -5 -5 -6 -6 -6 -6 -6 -6 -6 -6 -7 -7 -7 -7 -7 -7 -8 -8 -8 -8 -8 -8 -8
-9 -7 -7 -7 -7 -7 -7 -8 -8 -8 -9 -9 -8 -8 -7 -7 -7 -7 -7 -6 -6 -6 -6 -6 -6 -6 -6 -6 -6 -6 -6 -6 -6 -7 -7 -7 -7 -7 -7 -8 -8 -8 -8 -8 -8 -8 -8 -8 -8
-9 -8 -8 -8 -8 -8 -8 -8 -8 -9 -9 -9 -9 -8 -7 -7 -6 -6 -6 -6 -6 -7 -6 -6 -6 -6 -6 -6 -6 -7 -7 -7 -7 -7 -7 -7 -7 -8 -8 -8 -9 -9 -9 -9 -8 -8 -8 -8 -9
-10 -9 -9 -9 -9 -8 -8 -8 -8 -9 -9 -9 -9 -8 -8 -7 -6 -7 -6 -6 -7 -6 -7 -6 -6 -7 -7 -7 -7 -7 -7 -7 -7 -7 -7 -8 -8 -8 -9 -9 -9 -9 -9 -9 -8 -8 -8 -8 -8
-11 -10 -10 -10 -9 -8 -9 -8 -9 -8 -9 -9 -9 -8 -8 -7 -6 -7 -6 -7 -7 -7 -7 -7 -7 -7 -7 -7 -7 -7 -7 -7 -7 -8 -8 -8 -8 -9 -9 -9 -9 -9 -9 -9 -9 -8 -9 -9 -9
-11 -10 -10 -10 -10 -9 -9 -9 -9 -8 -9 -9 -9 -9 -8 -8 -6 -6 -6 -6 -6 -7 -7 -7 -7 -7 -7 -7 -7 -7 -7 -7 -8 -8 -8 -9 -9 -9 -9 -9 -9 -8 -8 -8 -8 -9 -9 -9 -9
-11 -11 -11 -10 -10 -10 -9 -9 -7 -9 -9 -9 -9 -9 -8 -8 -7 -7 -7 -6 -7 -7 -7 -7 -7 -7 -7 -7 -7 -8 -8 -8 -8 -8 -9 -9 -9 -9 -9 -9 -8 -8 -8 -9 -9 -9 -9 -9 -9
-12 -11 -11 -11 -10 -10 -10 -8 -9 -10 -8 -9 -9 -9 -8 -8 -7 -6 -7 -7 -8 -8 -8 -7 -8 -8 -7 -7 -7 -7 -7 -8 -8 -8 -9 -9 -9 -9 -10 -9 -9 -8 -9 -9 -9 -10 -10 -10 -10
-13 -12 -12 -11 -11 -11 -10 -8 -10 -10 -9 -9 -9 -9 -9 -8 -7 -7 -7 -7 -8 -8 -8 -8 -8 -8 -8 -8 -8 -7 -7 -7 -7 -9 -10 -9 -9 -9 -9 -9 -9 -9 -10 -10 -10 -10 -10 -10 -9
-15 -14 -12 -11 -11 -11 -10 -9 -10 -11 -10 -10 -9 -9 -9 -8 -9 -7 -7 -7 -8 -8 -8 -8 -8 -8 -8 -8 -8 -8 -8 -8 -8 -8 -9 -10 -9 -9 -9 -10 -10 -10 -10 -9 -9 -9 -9 -9 -9
-16 -15 -14 -12 -11 -11 -11 -10 -11 -11 -11 -10 -9 -9 -9 -9 -9 -9 -8 -8 -9 -8 -8 -8 -8 -8 -8 -7 -8 -8 -8 -10 -10 -9 -8 -9 -9 -9 -9 -10 -10 -10 -10 -9 -9 -9 -9 -9 -10
-16 -15 -15 -14 -12 -11 -11 -10 -11 -12 -12 -11 -9 -8 -9 -9 -9 -9 -9 -9 -9 -9 -10 -8 -8 -8 -8 -8 -8 -8 -8 -9 -9 -10 -9 -9 -9 -7 -8 -9 -9 -10 -9 -9 -9 -10 -10 -9 -9
-16 -16 -16 -15 -13 -11 -11 -11 -12 -11 -11 -12 -9 -9 -10 -9 -9 -8 -8 -8 -9 -8 -9 -8 -8 -7 -7 -7 -7 -7 -7 -8 -9 -8 -9 -6 -7 -8 -9 -9 -10 -10 -10 -9 -9 -9 -9 -9 -9
-17 -17 -16 -16 -15 -12 -12 -11 -13 -11 -11 -11 -10 -9 -10 -10 -9 -9 -9 -8 -8 -9 -9 -8 -8 -7 -8 -8 -8 -7 -8 -8 -7 -8 -8 -8 -8 -9 -10 -10 -10 -10 -10 -9 -9 -9 -9 -9 -9
-18 -18 -17 -17 -16 -13 -12 -12 -13 -11 -11 -11 -10 -10 -10 -9 -9 -9 -8 -8 -8 -9 -9 -8 -8 -8 -8 -7 -8 -7 -7 -8 -7 -8 -9 -10 -10 -9 -9 -9 -9 -10 -9 -9 -9 -9 -9 -9 -9
-20 -19 -18 -17 -17 -15 -14 -12 -13 -11 -10 -10 -11 -10 -10 -9 -9 -8 -8 -8 -9 -9 -9 -8 -8 -8 -8 -9 -9 -7 -8 -7 -8 -9 -9 -9 -10 -9 -9 -9 -9 -9 -9 -9 -9 -9 -9 -9 -10
-20 -20 -19 -18 -18 -15 -14 -14 -13 -11 -10 -9 -10 -10 -10 -9 -8 -8 -8 -8 -9 -9 -9 -9 -8 -8 -9 -9 -8 -8 -9 -8 -9 -9 -9 -9 -9 -9 -9 -9 -9 -9 -9 -9 -9 -9 -10 -10 -11
-21 -20 -20 -18 -17 -15 -16 -14 -13 -11 -10 -10 -11 -11 -10 -9 -9 -8 -8 -8 -8 -9 -9 -9 -9 -9 -9 -9 -8 -8 -9 -9 -9 -9 -9 -9 -9 -9 -9 -9 -9 -9 -9 -9 -10 -10 -10 -11 -11
-21 -20 -20 -18 -17 -17 -16 -13 -12 -11 -12 -12 -12 -12 -11 -10 -9 -8 -9 -8 -8 -9 -9 -9 -9 -9 -9 -9 -9 -8 -8 -9 -9 -9 -9 -9 -9 -9 -9 -9 -9 -9 -10 -10 -10 -10 -10 -11 -11
-21 -20 -20 -19 -18 -18 -15 -13 -12 -12 -13 -13 -12 -11 -10 -9 -9 -9 -9 -9 -9 -9 -9 -9 -9 -9 -9 -9 -9 -8 -9 -9 -9 -9 -9 -9 -9 -9 -9 -9 -9 -10 -10 -10 -10 -11 -11 -12 -12
-21 -20 -19 -18 -18 -17 -15 -13 -13 -12 -11 -10 -11 -10 -10 -9 -9 -9 -9 -9 -9 -9 -9 -10 -10 -9 -9 -9 -9 -9 -10 -10 -9 -9 -9 -9 -9 -9 -9 -10 -10 -10 -10 -11 -11 -11 -11 -12 -12
-20 -19 -18 -17 -17 -16 -15 -13 -12 -11 -11 -11 -10 -10 -10 -10 -9 -10 -10 -11 -10 -10 -10 -10 -10 -10 -9 -9 -9 -10 -10 -9 -9 -9 -9 -9 -9 -9 -10 -10 -10 -10 -10 -11 -11 -11 -12 -12 -12

GFSSGP_500_temp_165.txt.gz
Temp
-6 -6 -7 -6 -6 -5 -5 -6 -7 -7 -7 -6 -5 -5 -5 -5 -5 -5 -4 -4 -4 -3 -3 -3 -3 -4 -4 -4 -4 -4 -4 -5 -5 -5 -5 -6 -6 -6 -6 -6 -6 -6 -6 -6 -6 -6 -6 -6 -6
-7 -7 -7 -6 -6 -5 -5 -6 -7 -7 -7 -6 -5 -5 -5 -5 -5 -4 -4 -4 -4 -3 -3 -4 -4 -4 -4 -4 -4 -4 -4 -4 -5 -5 -5 -6 -6 -6 -6 -6 -6 -6 -6 -6 -6 -6 -6 -6 -6
-7 -7 -7 -6 -6 -5 -5 -6 -7 -7 -7 -7 -6 -6 -6 -5 -5 -5 -4 -4 -4 -3 -4 -4 -4 -4 -4 -4 -4 -4 -4 -4 -5 -5 -6 -6 -6 -6 -6 -6 -6 -6 -6 -6 -6 -6 -6 -6 -6
-7 -7 -7 -6 -5 -5 -6 -7 -7 -7 -7 -7 -6 -6 -6 -6 -5 -5 -6 -5 -4 -4 -4 -4 -4 -4 -4 -4 -4 -5 -5 -5 -5 -5 -6 -6 -6 -6 -7 -6 -6 -6 -6 -6 -6 -6 -7 -7 -7
-7 -7 -7 -6 -5 -5 -6 -7 -8 -7 -7 -7 -6 -6 -6 -6 -5 -5 -4 -5 -4 -4 -4 -4 -5 -4 -4 -4 -4 -4 -4 -5 -5 -5 -6 -6 -6 -6 -6 -6 -6 -6 -6 -6 -7 -7 -7 -7 -7
-8 -7 -6 -6 -6 -6 -7 -7 -8 -8 -7 -8 -7 -6 -6 -6 -6 -5 -5 -4 -4 -5 -4 -4 -5 -5 -5 -4 -4 -4 -4 -4 -5 -5 -5 -6 -6 -6 -6 -6 -6 -7 -7 -7 -7 -7 -7 -7 -7
-8 -7 -7 -7 -7 -6 -6 -7 -7 -8 -8 -8 -7 -6 -6 -6 -6 -6 -5 -4 -6 -5 -4 -4 -5 -5 -5 -5 -5 -5 -4 -4 -5 -5 -6 -6 -6 -6 -6 -7 -7 -7 -7 -7 -7 -7 -7 -8 -8
-8 -8 -7 -7 -7 -7 -7 -7 -8 -8 -8 -8 -7 -7 -7 -7 -6 -6 -5 -5 -6 -5 -4 -4 -5 -5 -5 -5 -5 -5 -5 -5 -5 -6 -6 -6 -7 -7 -7 -7 -7 -7 -7 -8 -8 -8 -8 -8 -8
-9 -8 -8 -7 -7 -7 -7 -7 -8 -8 -8 -8 -8 -7 -7 -7 -6 -6 -6 -6 -6 -5 -4 -3 -5 -5 -5 -5 -5 -5 -5 -6 -6 -6 -6 -7 -7 -7 -7 -7 -7 -8 -8 -8 -9 -9 -9 -8 -8
-10 -9 -8 -8 -8 -8 -7 -8 -8 -8 -8 -9 -8 -8 -8 -7 -7 -6 -5 -6 -7 -6 -6 -5 -5 -6 -5 -5 -5 -5 -5 -5 -6 -6 -6 -6 -7 -7 -7 -8 -8 -8 -9 -9 -9 -9 -9 -9 -9
-10 -9 -9 -9 -8 -8 -7 -8 -7 -7 -8 -9 -9 -8 -8 -8 -7 -6 -5 -6 -7 -6 -6 -6 -6 -6 -6 -6 -5 -6 -6 -6 -6 -6 -7 -7 -7 -7 -8 -8 -9 -9 -9 -9 -9 -9 -9 -9 -9
-11 -10 -9 -9 -9 -8 -8 -8 -8 -8 -8 -9 -9 -8 -8 -8 -7 -7 -7 -7 -7 -6 -6 -6 -6 -6 -6 -6 -6 -6 -6 -6 -6 -7 -7 -7 -8 -8 -8 -9 -9 -9 -9 -9 -9 -9 -9 -9 -9
-11 -11 -10 -10 -10 -9 -9 -8 -8 -8 -8 -8 -9 -9 -8 -7 -7 -7 -7 -6 -7 -7 -6 -6 -6 -6 -6 -6 -6 -6 -6 -6 -7 -7 -7 -7 -8 -8 -8 -9 -9 -9 -9 -9 -9 -9 -9 -9 -9
-12 -11 -11 -11 -10 -10 -9 -9 -8 -8 -8 -8 -9 -9 -9 -8 -7 -7 -7 -6 -6 -7 -7 -7 -7 -7 -7 -6 -6 -6 -7 -7 -7 -7 -7 -8 -8 -8 -9 -9 -9 -9 -9 -9 -9 -9 -9 -9 -9
-12 -12 -11 -11 -11 -10 -9 -9 -7 -9 -9 -8 -9 -9 -9 -8 -8 -8 -7 -7 -7 -7 -8 -7 -7 -7 -7 -7 -6 -7 -7 -7 -7 -7 -7 -8 -8 -9 -9 -9 -9 -9 -9 -9 -9 -9 -9 -9 -9
-13 -12 -12 -11 -11 -11 -10 -8 -9 -10 -9 -9 -9 -9 -9 -8 -8 -8 -7 -7 -7 -8 -7 -7 -7 -7 -7 -7 -7 -7 -8 -8 -8 -8 -8 -8 -9 -9 -10 -9 -9 -9 -9 -10 -9 -9 -9 -9 -9
-14 -13 -12 -12 -11 -11 -10 -9 -9 -10 -9 -9 -9 -9 -9 -9 -8 -8 -8 -7 -7 -7 -8 -8 -7 -7 -7 -8 -8 -8 -8 -8 -8 -8 -9 -9 -9 -10 -10 -9 -9 -10 -10 -10 -9 -10 -10 -9 -9
-15 -14 -13 -12 -12 -11 -11 -10 -10 -10 -9 -10 -10 -9 -8 -9 -8 -9 -8 -8 -7 -7 -8 -8 -7 -7 -8 -7 -8 -8 -8 -8 -8 -8 -9 -9 -10 -9 -9 -9 -9 -10 -10 -9 -10 -10 -10 -10 -10
-16 -16 -14 -13 -12 -12 -11 -10 -10 -11 -10 -10 -10 -9 -9 -9 -8 -8 -8 -8 -8 -8 -8 -8 -8 -8 -8 -8 -8 -8 -8 -8 -8 -9 -9 -9 -9 -10 -10 -9 -9 -9 -8 -8 -9 -10 -10 -10 -9
-16 -16 -16 -15 -13 -12 -11 -11 -10 -11 -11 -10 -10 -9 -9 -9 -9 -9 -9 -8 -7 -8 -8 -8 -8 -8 -8 -8 -8 -8 -8 -7 -8 -9 -9 -9 -9 -9 -9 -9 -9 -9 -9 -10 -10 -10 -9 -9 -9
-17 -16 -16 -16 -15 -12 -12 -11 -10 -11 -11 -11 -10 -10 -9 -10 -9 -9 -9 -9 -8 -8 -9 -9 -9 -8 -8 -8 -8 -8 -8 -8 -8 -8 -8 -8 -9 -9 -9 -9 -9 -9 -11 -10 -9 -9 -9 -9 -8
-17 -17 -16 -16 -16 -14 -12 -11 -11 -11 -11 -11 -9 -9 -9 -9 -9 -10 -9 -9 -9 -9 -9 -10 -9 -9 -8 -8 -8 -8 -8 -8 -8 -8 -8 -9 -9 -10 -8 -9 -9 -9 -9 -9 -9 -9 -9 -8 -9
-18 -17 -17 -17 -16 -15 -13 -11 -10 -11 -11 -11 -9 -9 -9 -10 -10 -10 -10 -9 -10 -9 -10 -9 -9 -9 -8 -8 -7 -7 -8 -8 -8 -7 -9 -9 -9 -9 -8 -9 -9 -9 -9 -9 -9 -9 -9 -9 -10
-19 -18 -18 -17 -17 -16 -14 -12 -11 -11 -10 -10 -10 -9 -9 -10 -11 -10 -9 -9 -9 -9 -9 -9 -9 -8 -8 -8 -8 -8 -8 -9 -9 -9 -9 -9 -9 -8 -9 -9 -9 -9 -9 -9 -9 -10 -10 -10 -10
-20 -20 -19 -19 -18 -16 -15 -13 -11 -11 -10 -10 -9 -9 -9 -10 -10 -10 -9 -9 -8 -9 -9 -9 -9 -8 -8 -8 -8 -8 -8 -8 -9 -9 -9 -8 -8 -9 -9 -9 -9 -9 -9 -9 -10 -10 -10 -10 -10
-20 -20 -20 -19 -17 -16 -16 -13 -13 -11 -10 -10 -11 -10 -10 -9 -10 -9 -9 -8 -9 -9 -10 -9 -8 -8 -8 -8 -8 -8 -8 -8 -9 -9 -8 -8 -9 -9 -9 -9 -9 -9 -9 -10 -10 -10 -10 -10 -10
-21 -20 -20 -20 -18 -17 -16 -12 -13 -11 -10 -11 -12 -11 -10 -10 -10 -10 -9 -9 -9 -9 -10 -9 -8 -8 -8 -8 -9 -9 -8 -9 -8 -8 -8 -8 -9 -9 -9 -9 -9 -9 -10 -10 -10 -10 -11 -11 -11
-21 -22 -21 -21 -19 -18 -16 -14 -13 -11 -11 -11 -13 -11 -11 -10 -9 -9 -9 -9 -9 -10 -10 -9 -8 -9 -9 -9 -10 -9 -9 -9 -8 -9 -9 -9 -9 -9 -9 -9 -10 -10 -10 -10 -10 -10 -11 -11 -12
-22 -21 -21 -21 -19 -17 -16 -14 -13 -12 -11 -11 -12 -12 -11 -10 -9 -9 -9 -9 -9 -10 -10 -9 -9 -9 -9 -10 -9 -9 -9 -9 -9 -9 -9 -9 -9 -9 -9 -10 -10 -10 -10 -10 -10 -10 -11 -12 -11
-22 -22 -21 -20 -19 -17 -16 -14 -14 -12 -13 -12 -12 -11 -11 -11 -10 -10 -10 -10 -10 -10 -10 -9 -9 -9 -9 -10 -10 -9 -9 -9 -9 -9 -9 -9 -9 -9 -10 -10 -10 -10 -10 -10 -10 -11 -12 -12 -12

GFSSGP_500_temp_168.txt.gz
Temp
-6 -6 -6 -6 -6 -6 -5 -6 -6 -6 -6 -6 -6 -6 -6 -6 -6 -5 -5 -5 -4 -3 -3 -3 -3 -4 -4 -4 -4 -4 -4 -4 -3 -4 -4 -5 -5 -5 -6 -6 -6 -6 -6 -6 -6 -6 -6 -6 -6
-7 -6 -6 -6 -6 -6 -5 -6 -6 -6 -6 -6 -6 -6 -6 -6 -6 -6 -5 -5 -4 -4 -3 -3 -3 -4 -4 -4 -4 -4 -4 -3 -3 -4 -4 -5 -5 -5 -6 -6 -6 -6 -6 -6 -6 -6 -6 -6 -6
-7 -7 -7 -6 -6 -5 -6 -6 -7 -7 -6 -6 -6 -6 -6 -6 -6 -6 -5 -5 -5 -4 -3 -3 -3 -4 -4 -4 -4 -4 -4 -4 -4 -4 -5 -5 -5 -6 -6 -6 -6 -6 -6 -6 -6 -6 -7 -7 -7
-7 -7 -7 -6 -5 -5 -6 -6 -7 -7 -6 -6 -6 -6 -6 -6 -6 -6 -6 -6 -5 -4 -4 -3 -3 -4 -4 -4 -4 -4 -4 -4 -4 -4 -5 -5 -6 -6 -6 -6 -6 -6 -6 -7 -7 -7 -7 -7 -7
-7 -7 -7 -6 -5 -6 -6 -6 -7 -7 -7 -7 -7 -6 -6 -6 -6 -6 -7 -7 -5 -5 -4 -4 -3 -4 -4 -4 -4 -4 -4 -4 -4 -5 -5 -6 -6 -6 -6 -6 -7 -7 -7 -7 -7 -7 -7 -7 -7
-8 -7 -7 -6 -6 -6 -5 -6 -7 -7 -7 -7 -7 -7 -6 -6 -6 -6 -6 -6 -6 -5 -4 -4 -4 -3 -4 -4 -4 -4 -4 -4 -5 -5 -5 -6 -6 -6 -7 -7 -7 -7 -7 -7 -7 -8 -8 -8 -8
-8 -8 -7 -7 -7 -6 -6 -7 -7 -8 -7 -7 -7 -7 -6 -6 -6 -5 -5 -5 -6 -6 -5 -5 -4 -3 -4 -5 -4 -5 -5 -5 -5 -5 -6 -6 -6 -7 -7 -7 -7 -7 -7 -8 -8 -8 -8 -8 -9
-9 -9 -8 -7 -7 -6 -7 -7 -7 -8 -8 -8 -7 -7 -7 -6 -6 -6 -6 -5 -5 -5 -5 -5 -4 -4 -4 -5 -5 -5 -5 -5 -5 -5 -5 -6 -6 -7 -7 -7 -7 -7 -8 -8 -8 -8 -8 -9 -8
-10 -9 -8 -8 -7 -7 -7 -7 -7 -8 -8 -8 -8 -7 -6 -7 -6 -6 -6 -6 -6 -6 -6 -5 -5 -4 -4 -5 -5 -5 -5 -5 -5 -5 -5 -6 -7 -7 -7 -8 -8 -8 -8 -9 -8 -9 -9 -9 -9
-11 -10 -9 -9 -9 -8 -7 -7 -8 -8 -8 -8 -8 -7 -7 -7 -7 -6 -6 -6 -7 -6 -6 -5 -5 -5 -5 -5 -5 -5 -5 -6 -6 -6 -6 -6 -7 -7 -7 -7 -8 -8 -9 -8 -9 -9 -9 -9 -9
-11 -10 -10 -10 -9 -8 -8 -8 -8 -7 -8 -9 -9 -8 -7 -7 -7 -7 -7 -7 -6 -6 -6 -6 -6 -6 -6 -6 -6 -6 -6 -6 -6 -6 -6 -6 -6 -7 -7 -7 -8 -8 -9 -9 -9 -9 -9 -9 -9
-12 -11 -11 -10 -10 -9 -8 -8 -8 -8 -8 -9 -9 -8 -7 -7 -7 -6 -7 -7 -7 -6 -6 -6 -6 -6 -6 -6 -6 -6 -6 -6 -6 -6 -6 -6 -7 -7 -7 -8 -8 -9 -9 -9 -9 -9 -9 -9 -9
-12 -12 -11 -11 -10 -10 -9 -7 -8 -8 -8 -8 -9 -9 -8 -8 -7 -7 -7 -7 -7 -7 -6 -6 -6 -7 -7 -6 -6 -6 -6 -6 -6 -6 -7 -7 -7 -7 -7 -8 -8 -9 -9 -9 -9 -9 -9 -9 -9
-14 -13 -12 -11 -11 -10 -9 -9 -9 -9 -9 -8 -9 -9 -8 -8 -7 -8 -8 -7 -7 -7 -7 -8 -6 -6 -7 -7 -6 -6 -6 -7 -7 -7 -7 -7 -7 -7 -8 -8 -8 -8 -8 -9 -9 -9 -9 -9 -9
-14 -13 -12 -12 -11 -10 -10 -9 -8 -9 -9 -8 -9 -9 -9 -8 -7 -8 -8 -8 -8 -8 -8 -8 -7 -7 -7 -7 -7 -7 -7 -7 -7 -7 -7 -7 -7 -7 -8 -8 -8 -9 -9 -9 -9 -9 -10 -9 -9
-16 -14 -13 -12 -12 -11 -10 -9 -10 -10 -9 -9 -9 -9 -9 -9 -7 -8 -8 -8 -8 -8 -8 -9 -7 -8 -7 -7 -7 -7 -7 -7 -7 -7 -7 -7 -8 -8 -8 -8 -9 -9 -9 -9 -9 -9 -9 -9 -9
-17 -15 -14 -13 -12 -11 -10 -10 -10 -10 -9 -9 -9 -9 -9 -9 -8 -8 -7 -7 -8 -8 -8 -8 -8 -9 -8 -7 -7 -7 -7 -7 -7 -7 -7 -8 -8 -8 -8 -9 -9 -9 -9 -9 -9 -9 -9 -9 -10
-19 -16 -15 -14 -13 -12 -11 -10 -10 -10 -9 -10 -9 -9 -9 -9 -9 -8 -8 -8 -8 -8 -8 -8 -8 -8 -7 -7 -7 -7 -7 -7 -7 -7 -7 -8 -8 -8 -8 -9 -9 -9 -9 -10 -9 -9 -9 -9 -10
-18 -17 -15 -15 -13 -12 -12 -11 -10 -11 -10 -10 -9 -9 -9 -9 -9 -9 -9 -9 -8 -9 -8 -8 -8 -8 -7 -7 -7 -7 -7 -8 -8 -8 -8 -7 -8 -8 -9 -9 -9 -10 -9 -9 -9 -9 -9 -9 -8
-17 -17 -17 -15 -14 -13 -12 -11 -10 -11 -11 -10 -10 -9 -9 -9 -9 -9 -9 -9 -9 -8 -8 -8 -8 -8 -8 -8 -7 -7 -8 -8 -7 -8 -7 -8 -8 -9 -9 -9 -8 -9 -8 -9 -9 -8 -8 -8 -8
-17 -17 -17 -16 -15 -13 -12 -11 -10 -11 -11 -10 -10 -9 -9 -9 -10 -9 -9 -9 -8 -8 -8 -8 -9 -9 -9 -8 -8 -8 -7 -7 -7 -7 -8 -8 -8 -9 -9 -9 -9 -8 -8 -8 -8 -8 -8 -9 -9
-18 -17 -17 -17 -15 -14 -13 -12 -11 -11 -11 -10 -10 -9 -9 -9 -10 -9 -9 -8 -8 -8 -9 -9 -8 -8 -9 -8 -8 -7 -7 -7 -7 -8 -8 -8 -8 -8 -9 -9 -9 -8 -8 -8 -8 -8 -9 -9 -10
-18 -18 -17 -17 -16 -15 -13 -12 -11 -11 -11 -11 -10 -9 -9 -9 -10 -10 -9 -9 -8 -9 -9 -9 -9 -8 -9 -8 -7 -7 -7 -7 -8 -8 -8 -8 -9 -8 -8 -8 -8 -8 -8 -9 -8 -9 -9 -10 -10
-19 -18 -17 -17 -17 -16 -14 -12 -12 -11 -11 -11 -10 -9 -9 -9 -10 -10 -10 -9 -9 -9 -9 -9 -8 -9 -9 -8 -7 -8 -7 -7 -8 -8 -9 -9 -9 -9 -8 -8 -8 -8 -8 -8 -9 -9 -9 -10 -10
-19 -18 -19 -18 -17 -15 -15 -14 -13 -11 -11 -10 -10 -9 -10 -10 -11 -10 -9 -9 -9 -9 -9 -9 -9 -10 -8 -8 -8 -8 -7 -8 -8 -8 -9 -9 -9 -8 -8 -8 -8 -8 -8 -9 -9 -10 -10 -10 -10
-20 -20 -21 -19 -17 -16 -16 -14 -12 -11 -11 -11 -11 -10 -10 -10 -9 -10 -10 -9 -9 -10 -10 -10 -9 -9 -8 -8 -8 -8 -8 -8 -8 -8 -8 -8 -8 -8 -8 -8 -8 -8 -9 -9 -10 -10 -10 -10 -10
-20 -19 -20 -19 -18 -19 -17 -14 -12 -11 -11 -11 -11 -10 -11 -11 -11 -11 -10 -10 -10 -10 -10 -9 -10 -9 -8 -8 -8 -8 -8 -8 -8 -8 -9 -8 -8 -8 -8 -8 -8 -9 -9 -10 -10 -10 -10 -10 -11
-21 -21 -20 -20 -20 -19 -17 -15 -13 -11 -11 -11 -11 -11 -11 -11 -11 -11 -10 -11 -10 -10 -9 -10 -10 -8 -8 -8 -8 -8 -8 -8 -8 -9 -9 -8 -8 -8 -8 -8 -9 -9 -10 -10 -10 -10 -10 -11 -11
-21 -21 -20 -20 -20 -19 -17 -16 -13 -12 -11 -11 -11 -11 -11 -11 -11 -11 -10 -10 -10 -9 -10 -10 -9 -8 -8 -8 -8 -8 -8 -9 -9 -9 -8 -8 -8 -9 -8 -9 -9 -10 -10 -10 -10 -10 -11 -11 -11
-21 -20 -21 -21 -20 -18 -18 -17 -14 -12 -11 -11 -11 -11 -11 -11 -11 -10 -11 -10 -10 -10 -10 -10 -9 -9 -9 -9 -8 -8 -9 -9 -9 -9 -8 -8 -9 -9 -9 -10 -10 -10 -10 -11 -11 -11 -11 -12 -11

GFSSGP_500_temp_171.txt.gz
Temp
-6 -6 -6 -6 -6 -5 -5 -5 -6 -8 -7 -6 -5 -6 -6 -6 -5 -5 -6 -5 -4 -3 -3 -3 -3 -3 -3 -3 -3 -4 -4 -4 -3 -3 -4 -4 -5 -5 -5 -5 -5 -5 -6 -6 -6 -6 -6 -6 -6
-6 -6 -6 -6 -6 -6 -5 -5 -7 -8 -8 -6 -6 -6 -6 -6 -6 -7 -7 -6 -4 -4 -4 -3 -3 -3 -3 -3 -3 -4 -4 -4 -4 -4 -4 -4 -5 -5 -5 -5 -5 -6 -6 -6 -6 -6 -6 -6 -6
-7 -7 -6 -6 -6 -6 -5 -8 -8 -8 -9 -5 -6 -6 -6 -6 -6 -6 -7 -6 -5 -5 -4 -4 -3 -3 -3 -3 -4 -4 -4 -4 -4 -4 -4 -4 -5 -5 -5 -5 -5 -6 -6 -6 -6 -6 -6 -6 -7
-7 -7 -7 -6 -5 -5 -6 -8 -8 -9 -9 -6 -6 -7 -6 -6 -6 -6 -6 -6 -6 -5 -4 -4 -4 -3 -3 -3 -4 -4 -4 -4 -4 -4 -4 -4 -5 -5 -5 -6 -6 -6 -6 -6 -7 -7 -7 -7 -7
-7 -7 -7 -6 -6 -5 -6 -7 -9 -9 -9 -6 -7 -8 -6 -6 -6 -7 -6 -6 -6 -6 -5 -5 -4 -4 -3 -3 -4 -4 -4 -4 -4 -4 -4 -5 -5 -5 -6 -6 -6 -6 -7 -7 -7 -7 -7 -7 -7
-8 -8 -7 -6 -6 -6 -6 -6 -8 -8 -9 -9 -8 -7 -6 -6 -6 -6 -7 -7 -6 -6 -5 -5 -5 -4 -4 -3 -4 -4 -4 -4 -4 -4 -4 -5 -5 -5 -6 -6 -6 -7 -7 -7 -7 -7 -7 -7 -7
-8 -8 -7 -7 -7 -6 -7 -7 -7 -7 -8 -9 -8 -7 -6 -7 -6 -6 -6 -8 -7 -7 -6 -5 -5 -5 -4 -4 -4 -4 -4 -4 -5 -5 -5 -5 -5 -5 -6 -6 -6 -7 -7 -7 -7 -7 -7 -8 -8
-9 -9 -8 -7 -7 -6 -8 -7 -7 -7 -8 -9 -10 -8 -7 -7 -6 -6 -6 -7 -6 -7 -7 -6 -5 -5 -4 -4 -4 -4 -4 -5 -5 -5 -5 -5 -5 -5 -6 -6 -6 -6 -7 -7 -7 -7 -8 -8 -8
-10 -10 -8 -8 -8 -8 -10 -9 -7 -8 -8 -8 -9 -8 -6 -7 -6 -6 -6 -6 -6 -7 -7 -7 -5 -5 -5 -5 -4 -4 -5 -5 -5 -5 -5 -5 -5 -6 -5 -6 -6 -7 -7 -7 -7 -8 -8 -8 -8
-11 -10 -9 -9 -9 -9 -9 -10 -7 -8 -8 -9 -9 -8 -6 -7 -7 -6 -6 -6 -6 -7 -6 -6 -6 -5 -5 -5 -5 -5 -5 -5 -6 -6 -6 -6 -6 -5 -6 -6 -6 -6 -7 -7 -7 -7 -8 -8 -8
-11 -11 -11 -10 -10 -11 -11 -10 -7 -8 -8 -8 -9 -8 -7 -7 -7 -7 -6 -6 -6 -7 -7 -6 -6 -6 -5 -5 -5 -6 -6 -6 -5 -6 -6 -6 -6 -6 -6 -6 -6 -6 -6 -6 -7 -7 -7 -8 -8
-13 -12 -12 -11 -11 -11 -10 -9 -9 -8 -8 -9 -9 -10 -8 -7 -7 -7 -7 -6 -7 -6 -7 -6 -6 -6 -6 -6 -6 -6 -6 -6 -6 -6 -6 -6 -6 -7 -6 -7 -6 -6 -6 -6 -7 -7 -7 -8 -8
-13 -13 -13 -12 -11 -10 -10 -9 -9 -8 -9 -9 -9 -9 -7 -7 -7 -7 -7 -7 -7 -7 -6 -6 -6 -6 -6 -6 -6 -6 -6 -6 -6 -6 -6 -6 -7 -6 -6 -6 -6 -6 -7 -7 -8 -8 -9 -9 -9
-14 -14 -13 -13 -12 -11 -10 -10 -10 -9 -9 -9 -8 -9 -8 -8 -7 -7 -7 -7 -8 -7 -7 -6 -6 -6 -6 -6 -6 -6 -6 -6 -6 -6 -7 -7 -6 -7 -7 -7 -7 -7 -8 -8 -8 -9 -9 -9 -9
-15 -15 -14 -13 -13 -12 -11 -11 -9 -9 -10 -9 -8 -9 -9 -8 -7 -7 -7 -7 -8 -7 -7 -7 -7 -6 -6 -6 -6 -6 -6 -7 -7 -7 -7 -7 -7 -7 -7 -7 -7 -8 -9 -9 -9 -9 -9 -9 -9
-17 -16 -15 -14 -13 -12 -12 -10 -10 -11 -10 -10 -9 -9 -9 -8 -8 -8 -8 -8 -8 -7 -8 -8 -7 -7 -7 -7 -7 -7 -7 -7 -7 -7 -7 -7 -7 -7 -7 -7 -7 -8 -8 -9 -9 -9 -10 -9 -10
-17 -17 -17 -16 -14 -13 -12 -10 -11 -11 -11 -10 -9 -9 -9 -9 -8 -8 -8 -8 -8 -8 -8 -8 -7 -7 -6 -8 -7 -7 -7 -7 -7 -7 -7 -7 -7 -7 -7 -7 -8 -8 -9 -8 -9 -10 -9 -9 -7
-18 -19 -19 -18 -17 -14 -12 -11 -12 -11 -11 -10 -9 -9 -9 -9 -8 -8 -8 -8 -8 -8 -7 -8 -7 -8 -8 -8 -8 -8 -7 -7 -7 -7 -7 -7 -7 -7 -7 -8 -8 -8 -8 -7 -8 -9 -9 -8 -8
-18 -18 -19 -18 -18 -15 -13 -12 -12 -11 -11 -10 -10 -9 -9 -9 -9 -8 -8 -8 -8 -8 -8 -8 -8 -7 -7 -8 -8 -9 -8 -8 -8 -8 -7 -7 -7 -7 -7 -8 -8 -8 -7 -7 -7 -8 -9 -8 -9
-19 -19 -20 -18 -18 -18 -16 -13 -12 -12 -11 -10 -10 -9 -9 -9 -9 -8 -8 -8 -8 -8 -8 -8 -8 -8 -8 -8 -8 -8 -8 -8 -8 -7 -7 -7 -7 -7 -7 -8 -8 -8 -8 -7 -7 -7 -7 -7 -8
-19 -18 -20 -19 -18 -16 -15 -13 -12 -12 -11 -11 -11 -10 -9 -9 -9 -9 -8 -8 -7 -7 -7 -7 -8 -8 -8 -8 -8 -8 -8 -8 -7 -7 -7 -7 -7 -7 -7 -7 -8 -8 -7 -8 -7 -7 -7 -8 -9
-21 -20 -19 -19 -18 -16 -14 -13 -11 -11 -11 -11 -10 -9 -9 -9 -9 -9 -8 -9 -9 -8 -7 -8 -8 -8 -8 -8 -8 -8 -8 -7 -7 -7 -6 -7 -7 -7 -8 -7 -8 -8 -7 -7 -7 -8 -8 -9 -9
-20 -19 -18 -18 -18 -17 -17 -14 -14 -12 -11 -11 -10 -9 -9 -9 -10 -9 -9 -8 -9 -8 -8 -8 -8 -8 -8 -8 -8 -7 -8 -8 -7 -7 -7 -7 -8 -7 -8 -8 -8 -8 -7 -7 -8 -8 -9 -9 -9
-20 -19 -18 -18 -17 -17 -16 -14 -14 -13 -12 -11 -10 -10 -9 -9 -10 -9 -10 -9 -10 -9 -9 -9 -8 -8 -8 -8 -8 -8 -9 -7 -7 -7 -7 -8 -8 -8 -8 -8 -8 -8 -7 -8 -8 -9 -9 -9 -9
-20 -19 -19 -19 -19 -17 -15 -14 -14 -14 -11 -11 -10 -10 -9 -10 -10 -9 -9 -9 -8 -8 -9 -8 -8 -8 -8 -8 -8 -8 -8 -8 -7 -8 -8 -8 -8 -8 -8 -8 -8 -8 -8 -8 -9 -9 -9 -9 -9
-21 -20 -19 -18 -18 -17 -17 -15 -14 -14 -13 -11 -11 -10 -10 -10 -10 -9 -9 -8 -9 -9 -8 -9 -9 -10 -8 -9 -9 -8 -8 -8 -8 -8 -8 -8 -8 -8 -8 -8 -8 -8 -8 -9 -9 -9 -9 -9 -9
-21 -19 -19 -19 -18 -17 -16 -16 -14 -14 -11 -12 -11 -11 -11 -10 -10 -9 -8 -9 -9 -10 -9 -8 -9 -9 -9 -8 -8 -8 -8 -8 -8 -8 -8 -8 -8 -8 -8 -8 -8 -8 -9 -9 -9 -9 -9 -9 -10
-21 -21 -20 -19 -18 -17 -16 -16 -15 -13 -13 -12 -12 -12 -11 -10 -10 -8 -8 -8 -10 -10 -9 -8 -9 -8 -9 -10 -9 -8 -8 -8 -8 -8 -8 -8 -8 -8 -8 -8 -8 -8 -9 -9 -9 -9 -10 -10 -11
-20 -20 -19 -20 -19 -18 -16 -15 -15 -15 -12 -12 -12 -13 -11 -11 -9 -8 -8 -10 -11 -10 -9 -8 -8 -9 -10 -9 -8 -8 -8 -8 -8 -8 -8 -8 -8 -8 -8 -8 -8 -9 -9 -9 -10 -10 -10 -11 -11
-21 -21 -21 -21 -20 -18 -18 -16 -15 -15 -14 -12 -12 -12 -13 -10 -9 -9 -9 -11 -10 -10 -9 -9 -9 -10 -9 -9 -8 -8 -8 -8 -8 -8 -9 -8 -8 -8 -8 -8 -8 -9 -9 -10 -10 -10 -10 -11 -11

GFSSGP_500_temp_174.txt.gz
Temp
-6 -6 -6 -6 -6 -5 -4 -4 -5 -6 -7 -7 -5 -5 -6 -4 -5 -5 -6 -5 -4 -4 -4 -3 -3 -3 -3 -3 -3 -3 -3 -3 -3 -3 -4 -4 -3 -4 -4 -4 -4 -4 -5 -5 -5 -5 -5 -5 -5
-6 -6 -6 -6 -6 -5 -4 -5 -5 -6 -8 -8 -7 -5 -6 -6 -7 -6 -6 -5 -4 -4 -4 -4 -3 -3 -3 -3 -3 -3 -4 -3 -3 -3 -4 -4 -4 -4 -4 -4 -4 -4 -5 -5 -5 -5 -5 -5 -5
-6 -6 -6 -6 -6 -5 -4 -5 -5 -6 -8 -8 -7 -6 -6 -6 -6 -7 -5 -5 -6 -5 -5 -4 -4 -3 -3 -3 -3 -3 -4 -4 -4 -4 -4 -4 -4 -4 -4 -4 -4 -4 -5 -5 -5 -5 -5 -5 -6
-7 -7 -6 -5 -5 -5 -5 -6 -7 -8 -7 -8 -8 -7 -7 -5 -7 -6 -6 -6 -6 -5 -5 -4 -4 -4 -3 -3 -3 -3 -3 -4 -4 -4 -4 -4 -4 -4 -4 -4 -4 -5 -5 -5 -5 -5 -5 -5 -5
-7 -7 -6 -6 -5 -5 -6 -6 -6 -8 -8 -8 -8 -8 -7 -5 -7 -7 -5 -6 -6 -6 -6 -5 -4 -4 -4 -4 -3 -3 -3 -4 -4 -4 -4 -4 -4 -4 -4 -4 -4 -4 -5 -5 -5 -5 -5 -5 -6
-7 -8 -7 -6 -6 -6 -6 -6 -8 -8 -8 -9 -9 -8 -7 -5 -7 -7 -7 -6 -6 -6 -6 -6 -5 -4 -4 -4 -4 -3 -3 -4 -4 -4 -4 -4 -4 -4 -4 -4 -4 -4 -5 -5 -5 -5 -6 -5 -5
-8 -8 -7 -7 -7 -6 -6 -7 -8 -9 -9 -9 -9 -9 -9 -5 -7 -7 -7 -7 -5 -6 -6 -6 -5 -5 -5 -4 -4 -4 -4 -4 -4 -4 -4 -4 -4 -4 -5 -4 -4 -5 -5 -5 -5 -6 -5 -5 -6
-9 -9 -8 -8 -7 -7 -8 -7 -7 -9 -9 -9 -9 -9 -9 -6 -6 -7 -7 -7 -6 -6 -7 -7 -6 -5 -5 -4 -4 -4 -4 -4 -4 -5 -5 -5 -5 -5 -5 -5 -5 -5 -5 -5 -5 -6 -5 -6 -6
-11 -10 -9 -8 -8 -8 -8 -10 -9 -8 -10 -10 -10 -10 -9 -6 -6 -7 -6 -7 -7 -7 -7 -8 -7 -6 -5 -5 -4 -4 -4 -4 -5 -5 -5 -5 -5 -5 -5 -5 -5 -5 -5 -5 -6 -6 -6 -6 -7
-12 -11 -10 -10 -10 -9 -9 -10 -10 -11 -11 -9 -9 -10 -9 -8 -6 -7 -7 -6 -7 -7 -6 -7 -7 -7 -6 -5 -5 -5 -5 -5 -5 -4 -5 -5 -5 -5 -5 -5 -5 -6 -6 -6 -6 -6 -7 -7 -8
-13 -12 -12 -11 -11 -10 -10 -11 -11 -11 -11 -8 -9 -9 -9 -9 -7 -7 -7 -6 -7 -7 -6 -7 -7 -6 -7 -6 -5 -5 -5 -5 -5 -5 -5 -5 -5 -6 -6 -5 -6 -6 -6 -7 -7 -7 -7 -8 -8
-13 -13 -12 -12 -12 -11 -11 -11 -12 -11 -11 -10 -9 -11 -10 -8 -7 -7 -7 -7 -7 -6 -6 -7 -7 -6 -6 -6 -6 -5 -5 -5 -5 -5 -6 -6 -6 -6 -6 -6 -6 -7 -7 -7 -7 -7 -8 -8 -9
-14 -13 -14 -13 -13 -12 -12 -11 -11 -12 -12 -11 -11 -11 -11 -7 -8 -8 -7 -7 -7 -6 -6 -6 -6 -6 -6 -6 -6 -6 -6 -5 -6 -6 -6 -6 -6 -6 -6 -6 -6 -6 -7 -6 -7 -7 -8 -8 -8
-14 -14 -14 -14 -13 -13 -13 -11 -11 -12 -13 -11 -12 -11 -11 -8 -8 -8 -7 -7 -7 -7 -6 -6 -6 -6 -6 -6 -6 -6 -6 -6 -6 -6 -7 -6 -6 -6 -6 -6 -6 -6 -6 -7 -7 -8 -8 -9 -9
-15 -15 -14 -14 -14 -13 -13 -13 -11 -11 -11 -12 -12 -11 -11 -10 -8 -8 -7 -7 -7 -7 -6 -6 -7 -6 -6 -6 -6 -6 -6 -6 -7 -7 -7 -6 -6 -6 -6 -6 -6 -7 -7 -7 -8 -7 -8 -8 -8
-15 -16 -15 -15 -14 -14 -14 -12 -12 -11 -11 -10 -11 -9 -10 -9 -8 -8 -7 -7 -7 -7 -6 -7 -7 -6 -6 -6 -6 -6 -6 -7 -7 -7 -7 -6 -6 -6 -6 -7 -6 -7 -7 -8 -7 -7 -6 -7 -8
-16 -16 -16 -15 -15 -14 -14 -13 -11 -12 -12 -11 -10 -10 -10 -9 -9 -7 -7 -6 -7 -7 -7 -7 -7 -7 -7 -7 -7 -7 -7 -7 -7 -7 -7 -7 -7 -7 -7 -6 -7 -7 -7 -7 -7 -6 -6 -6 -8
-18 -18 -18 -17 -16 -15 -14 -13 -13 -12 -12 -11 -11 -10 -9 -9 -8 -7 -7 -6 -7 -7 -7 -7 -7 -7 -7 -7 -7 -7 -7 -7 -8 -8 -8 -7 -7 -6 -7 -7 -7 -7 -7 -7 -7 -7 -6 -7 -7
-19 -18 -18 -17 -17 -18 -14 -14 -13 -13 -12 -12 -11 -11 -10 -10 -9 -6 -7 -8 -7 -7 -7 -7 -7 -8 -7 -8 -7 -8 -8 -8 -8 -8 -8 -7 -7 -6 -6 -6 -6 -6 -7 -7 -7 -7 -7 -7 -7
-19 -18 -18 -17 -18 -17 -18 -18 -15 -13 -12 -12 -11 -11 -10 -10 -9 -7 -8 -8 -7 -7 -7 -7 -7 -8 -8 -8 -8 -8 -7 -8 -8 -8 -8 -7 -7 -6 -6 -6 -6 -6 -7 -7 -7 -7 -7 -7 -7
-18 -19 -18 -18 -18 -17 -17 -17 -17 -15 -14 -13 -12 -12 -11 -10 -8 -7 -9 -8 -8 -7 -7 -8 -8 -8 -9 -8 -8 -8 -8 -8 -8 -8 -7 -7 -6 -6 -6 -6 -6 -7 -7 -7 -7 -7 -7 -7 -8
-19 -19 -19 -19 -18 -18 -17 -17 -17 -16 -15 -13 -12 -12 -11 -10 -9 -8 -8 -8 -7 -7 -8 -8 -8 -8 -8 -8 -8 -8 -8 -8 -8 -8 -7 -7 -6 -6 -7 -7 -7 -7 -7 -7 -7 -7 -7 -8 -8
-19 -19 -19 -19 -19 -18 -17 -18 -16 -16 -14 -13 -11 -11 -10 -10 -9 -8 -9 -10 -8 -8 -8 -8 -8 -8 -8 -8 -8 -8 -8 -8 -7 -7 -7 -7 -6 -7 -7 -7 -7 -7 -7 -7 -7 -7 -8 -8 -9
-20 -19 -19 -19 -18 -19 -17 -17 -16 -16 -14 -12 -12 -11 -11 -10 -8 -8 -10 -9 -9 -8 -8 -9 -9 -9 -8 -8 -9 -8 -8 -8 -8 -7 -7 -7 -7 -7 -7 -7 -8 -7 -7 -7 -7 -8 -8 -9 -9
-21 -20 -20 -20 -19 -18 -17 -17 -16 -15 -13 -12 -11 -11 -11 -10 -9 -8 -9 -8 -9 -9 -9 -9 -8 -8 -8 -8 -9 -8 -8 -8 -8 -8 -7 -7 -7 -7 -7 -8 -8 -7 -7 -7 -8 -8 -9 -9 -9
-21 -21 -19 -19 -18 -18 -17 -17 -14 -15 -13 -12 -12 -11 -11 -9 -8 -8 -9 -9 -9 -9 -8 -8 -9 -8 -9 -8 -8 -9 -8 -8 -7 -7 -7 -7 -7 -7 -8 -8 -8 -8 -8 -8 -8 -8 -8 -9 -9
-20 -19 -20 -19 -18 -17 -17 -16 -15 -15 -14 -13 -12 -12 -11 -10 -9 -9 -9 -9 -10 -9 -9 -9 -8 -8 -8 -8 -9 -9 -9 -8 -8 -7 -7 -7 -7 -7 -8 -8 -8 -8 -8 -8 -8 -9 -9 -9 -9
-20 -19 -19 -19 -18 -16 -16 -15 -15 -14 -14 -14 -12 -11 -11 -11 -9 -9 -8 -8 -9 -8 -8 -9 -9 -8 -9 -9 -9 -9 -9 -8 -8 -8 -8 -8 -8 -8 -8 -8 -8 -8 -8 -8 -9 -9 -9 -9 -9
-20 -20 -19 -19 -18 -17 -17 -15 -15 -15 -13 -14 -13 -11 -11 -11 -10 -7 -7 -8 -9 -10 -9 -8 -8 -9 -9 -9 -10 -9 -8 -8 -8 -8 -8 -8 -8 -8 -8 -8 -8 -8 -8 -8 -9 -9 -9 -9 -10
-20 -20 -20 -19 -18 -17 -18 -16 -16 -15 -14 -12 -14 -12 -11 -11 -10 -7 -8 -8 -8 -11 -10 -9 -9 -9 -10 -10 -9 -8 -9 -8 -8 -8 -8 -8 -8 -8 -8 -8 -8 -8 -8 -9 -9 -9 -10 -10 -10